Location: Unspecified
(58.7730°N, 5.8460°E)
Time: 14:00:40
(UTC+01:00)

Resurs 1-4 Rocket - Visible Passes

Search period start: 17 January 2017 00:00
Search period end: 27 January 2017 00:00
Orbit: 800 x 814 km, 98.5° (Epoch: 16 January)

Date Brightness Start Highest point End Pass type
(mag) Time Alt. Az. Time Alt. Az. Time Alt. Az.
17 Jan 4.8 03:28:58 10° NNE 03:29:27 13° NNE 03:29:27 13° NNE visible
17 Jan 4.2 05:09:15 10° N 05:10:32 16° N 05:10:32 16° N visible
17 Jan 4.2 06:50:56 10° NNW 06:51:37 11° NNW 06:51:37 11° NNW visible
18 Jan 5.0 03:04:26 10° NNE 03:04:39 11° NNE 03:04:39 11° NNE visible
18 Jan 4.2 04:44:31 10° N 04:45:44 17° N 04:45:44 17° N visible
18 Jan 4.1 06:25:33 10° N 06:26:50 13° NNW 06:26:50 13° NNW visible
19 Jan 4.4 04:19:50 10° NNE 04:20:57 16° N 04:20:57 16° N visible
19 Jan 4.1 06:00:34 10° N 06:02:02 15° NNW 06:02:02 15° NNW visible
20 Jan 4.5 03:55:12 10° NNE 03:56:10 16° NNE 03:56:10 16° NNE visible
20 Jan 4.0 05:35:42 10° N 05:37:14 16° NNW 05:37:14 16° NNW visible
21 Jan 4.7 03:30:36 10° NNE 03:31:23 14° NNE 03:31:23 14° NNE visible
21 Jan 4.1 05:10:55 10° N 05:12:28 18° N 05:12:28 18° N visible
21 Jan 4.2 06:52:40 10° NNW 06:53:33 11° NNW 06:53:33 11° NNW visible
22 Jan 4.9 03:06:04 10° NNE 03:06:35 13° NNE 03:06:35 13° NNE visible
22 Jan 4.1 04:46:10 10° N 04:47:41 18° N 04:47:41 18° N visible
22 Jan 4.1 06:27:13 10° N 06:28:46 13° NNW 06:28:46 13° NNW visible
23 Jan 5.0 02:41:37 10° NNE 02:41:48 11° NNE 02:41:48 11° NNE visible
23 Jan 4.2 04:21:29 10° NNE 04:22:53 18° N 04:22:53 18° N visible
23 Jan 4.0 06:02:13 10° N 06:03:59 15° NNW 06:03:59 15° NNW visible
24 Jan 4.4 03:56:50 10° NNE 03:58:06 18° NNE 03:58:06 18° NNE visible
24 Jan 4.0 05:37:21 10° N 05:39:12 17° NNW 05:39:12 17° NNW visible
25 Jan 4.5 03:32:14 10° NNE 03:33:20 17° NNE 03:33:20 17° NNE visible
25 Jan 3.9 05:12:33 10° N 05:14:24 19° N 05:14:24 19° N visible
25 Jan 4.2 06:54:25 10° NNW 06:55:21 10° NNW 06:55:30 10° NNW visible
26 Jan 4.7 03:07:42 10° NNE 03:08:32 15° NNE 03:08:32 15° NNE visible
26 Jan 4.0 04:47:49 10° N 04:49:38 20° N 04:49:38 20° N visible
26 Jan 4.0 06:28:54 10° N 06:30:43 13° NNW 06:30:43 13° NNW visible
